Regional Weather Roundup
Issued by NWS

Home | Current Version | Previous Version | Text Only | Print | Product List | Glossary Off
Versions: 1 2 3 4 5 6 7 8 9 10 11 12 13 14 15 16 17 18 19 20 21 22 23 24 25 26 27 28 29 30 31 32 33 34 35 36 37 38 39 40 41 42 43 44 45 46 47 48 49 50

000
ASUS43 KLOT 261510
RWRIL

ILLINOIS REGIONAL WEATHER ROUNDUP
NATIONAL WEATHER SERVICE CHICAGO/ROMEOVILLE IL
1000 AM CDT SAT JUL 26 2014

NOTE: "FAIR" INDICATES FEW OR NO CLOUDS BELOW 12,000 FEET WITH NO
SIGNIFICANT WEATHER AND/OR OBSTRUCTIONS TO VISIBILITY.

* THESE STATIONS ARE NOT UNDER NWS QUALITY CONTROL. THEY ALSO MAY NOT
  REPORT WEATHER SUCH AS PRECIPITATION OR FOG.

ILZ001-002-007-009-015-016-024-261600-
NORTHWEST ILLINOIS

CITY           SKY/WX    TMP DP  RH WIND       PRES   REMARKS
MOLINE         CLOUDY    73  66  78 NE9       29.81F
STERLING*      MOSUNNY   77  66  69 NW7       29.86R
SAVANNA*       SUNNY     74  64  68 W5        29.85S
$$

ILZ003-004-008-010-011-017-018-261600-
NORTH CENTRAL ILLINOIS

CITY           SKY/WX    TMP DP  RH WIND       PRES   REMARKS
ROCKFORD       PTSUNNY   76  65  68 NW6       29.86R
FREEPORT*      MOSUNNY   71  66  83 W7        29.88R
ROCHELLE*      MOSUNNY   74  65  71 W3        29.85R
DE KALB*       PTSUNNY   72  65  79 SW5       29.85R
PERU*          CLOUDY    71  66  83 W5        29.85R
$$

ILZ005-006-012>014-019>023-261600-
NORTHEAST ILLINOIS

CITY           SKY/WX    TMP DP  RH WIND       PRES   REMARKS
CHICAGO-OHARE  CLOUDY    74  62  66 CALM      29.83F
CHICAGO-MIDWAY PTSUNNY   75  66  73 SW8       29.83F
AURORA         PTSUNNY   74  65  73 CALM      29.85S
LANSING*       CLOUDY    72  64  75 SW9       29.85F
JOLIET*        MOSUNNY   73  64  74 S6        29.85S
WAUKEGAN       MOSUNNY   72  62  71 CALM      29.83F
DUPAGE AIRPORT PTSUNNY   76  65  68 W6        29.84S
KANKAKEE*      CLOUDY    73  67  81 S7        29.85F
WHEELING       MOSUNNY   76  64  66 SW3       29.85F
MORRIS*        MOSUNNY   73  66  80 S5        29.84S
ROMEOVILLE*    CLOUDY    73  64  73 S7        29.84S
NORTHERLY ISL    N/A     73  63  70 S6          N/A
$$

LMZ740>746-261600-
SOUTHERN LAKE MICHIGAN

STATION/POSITION SKY/WX   TEMP    WIND        PRES    VSBY  WAVE
                          AIR SEA DIR/SP/G                  HT/PER
                          (F)     (DEG/KT/KT) (MB)    (MI)  (FT/S)
SOUTHERN BUOY              64 61  150/  8/  8 1010.8F         1
WAUKEGAN HARBOR            73     170/  1/  2   N/A
HARRISON CRIB              70     150/  7/  9   N/A
BURNHAM HARBOR             74     200/  3/  7   N/A
CALUMET HARBOR             71     200/  7/  8 1009.2F
MICHIGAN CITY              71     190/  7/  9   N/A
MICHIGAN CITY 6N           70 68  210/  2/  4   N/A           1
ST. JOSEPH                 68 66  110/  2/  2   N/A           0
$$

ILZ025>027-034>036-040-047-049-050-058-095>099-261600-
WEST-CENTRAL ILLINOIS

CITY           SKY/WX    TMP DP  RH WIND       PRES   REMARKS
QUINCY         PTSUNNY   81  73  76 SW12      29.83F HX  86
GALESBURG*     CLOUDY    75  71  86 CALM      29.83F
MACOMB*        CLOUDY    78  74  87 SW8       29.84F HX  80
JACKSONVILLE*  MOSUNNY   82  75  79 SW9       29.86R HX  88
PITTSFIELD*    PTSUNNY   82  73  72 SW9       29.86S HX  88
$$

ILZ028>032-037-038-041>044-048-051>054-059>061-261600-
CENTRAL ILLINOIS

CITY           SKY/WX    TMP DP  RH WIND       PRES   REMARKS
PONTIAC        MOSUNNY   77  72  83 SW6       29.84S
DECATUR        SUNNY     80  71  74 SW14      29.86F HX  84
PEORIA         CLOUDY    78  70  76 SW6       29.84R HX  80
LACON*         CLOUDY    74  67  80 W3        29.83R
LINCOLN*       PTSUNNY   79  71  74 SW7       29.83R HX  82
SPRINGFIELD    SUNNY     80  72  76 SW10      29.85S HX  84
TAYLORVILLE    SUNNY     77  72  83 SW14      29.86F
$$

ILZ033-039-045-046-055>057-062-063-261600-
EAST-CENTRAL ILLINOIS

CITY           SKY/WX    TMP DP  RH WIND       PRES   REMARKS
CHAMPAIGN      SUNNY     79  71  76 SW12      29.87F HX  82
DANVILLE*      CLOUDY    74  69  84 SW8       29.85F
RANTOUL*       SUNNY     79  69  72 SW12      29.87F HX  81
MATTOON        SUNNY     77  70  79 SW9       29.89S
PARIS*         MOSUNNY   76  70  80 S8        29.90S
$$

ILZ079-100>102-261600-
SOUTHWEST ILLINOIS

CITY           SKY/WX    TMP DP  RH WIND       PRES   REMARKS
ALTON          SUNNY     81  75  83 SW9       29.89S HX  86
BELLEVILLE     SUNNY     80  73  78 VRB2      29.89S HX  84
CAHOKIA*       SUNNY     83  72  69 VRB6      29.89F HX  88
SPARTA*        MOSUNNY   75  70  83 S8        29.92S
$$

ILZ064>066-069>071-074>076-080>082-084>086-088>090-092>094-261600-
SOUTH-CENTRAL ILLINOIS

CITY           SKY/WX    TMP DP  RH WIND       PRES   REMARKS
CARBONDALE     SUNNY     80  70  71 SW10      29.94S HX  83
CAIRO*         SUNNY     82  73  74 SW7       29.97S HX  86
EFFINGHAM*     SUNNY     80  69  68 SW9       29.90S HX  83
MARION         MOSUNNY  N/A N/A N/A SW12      29.95F
MT. VERNON     SUNNY     79  70  73 SW13      29.94R HX  81
CENTRALIA*     SUNNY     83  71  65 SW10      29.92R HX  88
SALEM*         SUNNY     81  73  76 SW12      29.92R HX  86
METROPOLIS*    SUNNY     80  67  64 SW12      29.97F HX  82
$$

ILZ067-068-072-073-078-083-087-091-261600-
SOUTHEAST ILLINOIS

CITY           SKY/WX    TMP DP  RH WIND       PRES   REMARKS
LAWRENCEVILLE  MOSUNNY   79  70  74 SW13      29.92S HX  82
FLORA*         SUNNY     78  70  75 SW8       29.92S HX  81
FAIRFIELD*     SUNNY     81  73  78 SW9       29.92S HX  85
HARRISBURG*    SUNNY     78  72  80 SW10      29.96S HX  80
ROBINSON*      SUNNY     79  71  74 SW9       29.92R HX  82
CARMI*         SUNNY     82  73  74 S12G17    29.94R HX  88
$$

ABBREVIATIONS USED IN REMARKS
   TC - TEMPERATURE IN CELSIUS
  WCI - WIND CHILL INDEX
   HX - HEAT INDEX
  VSB - VISIBILITY
$$




USA.gov is the U.S. government's official web portal to all federal, state and local government web resources and services.